When you browse on this site, cookies collect data to enhance your experience and personalize the content and advertising you see.
Visit our Privacy Policy to learn more. By continuing to use the site, you agree to this use of cookies and data.
  • In Latvia
  • List of Countries
  • For 7 days
  • Water Temperature
  • Weather Map
  • Weather Widgets
  • user-avatar
    Login

    Hourly Weather Djaipur

    Today, 18 February, Tuesday

    Time Temperature Precipitation Wind Pressure Humidity
    00:00 +16°C° 0 mm 2 mps 727 mmHg 19%
    01:00 +14°C° 0 mm 1 mps 727 mmHg 21%
    02:00 +13°C° 0 mm 1 mps 726 mmHg 22%
    03:00 +13°C° 0 mm 1 mps 726 mmHg 26%
    04:00 +11°C° 0 mm 0 mps 726 mmHg 31%
    05:00 +11°C° 0 mm 0 mps 725 mmHg 35%
    06:00 +13°C° 0 mm 0 mps 726 mmHg 31%
    07:00 +16°C° 0 mm 0 mps 727 mmHg 26%
    08:00 +21°C° 0 mm 1 mps 728 mmHg 21%
    09:00 +24°C° 0 mm 1 mps 728 mmHg 17%
    10:00 +26°C° 0 mm 2 mps 728 mmHg 14%
    11:00 +29°C° 0 mm 2 mps 728 mmHg 10%
    12:00 +30°C° 0 mm 3 mps 727 mmHg 10%
    13:00 +32°C° 0 mm 4 mps 727 mmHg 9%
    14:00 +33°C° 0 mm 4 mps 726 mmHg 8%
    15:00 +32°C° 0 mm 4 mps 725 mmHg 9%
    16:00 +30°C° 0 mm 3 mps 725 mmHg 11%
    17:00 +28°C° 0 mm 3 mps 724 mmHg 12%
    18:00 +26°C° 0 mm 3 mps 725 mmHg 13%
    19:00 +23°C° 0 mm 2 mps 725 mmHg 15%
    20:00 +19°C° 0 mm 2 mps 725 mmHg 16%
    21:00 +18°C° 0 mm 2 mps 725 mmHg 16%
    22:00 +17°C° 0 mm 2 mps 725 mmHg 17%
    23:00 +16°C° 0 mm 1 mps 725 mmHg 17%

    Tomorrow, 19 February, Wednesday

    Time Temperature Precipitation Wind Pressure Humidity
    00:00 +15°C° 0 mm 1 mps 724 mmHg 21%
    01:00 +15°C° 0 mm 1 mps 724 mmHg 25%
    02:00 +14°C° 0 mm 1 mps 724 mmHg 29%
    03:00 +14°C° 0 mm 1 mps 724 mmHg 27%
    04:00 +14°C° 0 mm 1 mps 723 mmHg 26%
    05:00 +14°C° 0 mm 1 mps 723 mmHg 24%
    06:00 +16°C° 0 mm 2 mps 724 mmHg 22%
    07:00 +18°C° 0 mm 2 mps 725 mmHg 21%
    08:00 +20°C° 0 mm 2 mps 725 mmHg 19%
    09:00 +24°C° 0 mm 3 mps 726 mmHg 17%
    10:00 +26°C° 0 mm 4 mps 726 mmHg 15%
    11:00 +29°C° 0 mm 4 mps 726 mmHg 13%
    12:00 +30°C° 0 mm 4 mps 725 mmHg 13%
    13:00 +32°C° 0 mm 4 mps 724 mmHg 12%
    14:00 +33°C° 0 mm 4 mps 724 mmHg 11%
    15:00 +30°C° 0 mm 3 mps 723 mmHg 13%
    16:00 +29°C° 0 mm 3 mps 723 mmHg 16%
    17:00 +28°C° 0 mm 2 mps 722 mmHg 18%
    18:00 +27°C° 0 mm 2 mps 722 mmHg 18%
    19:00 +25°C° 0 mm 3 mps 723 mmHg 18%
    20:00 +23°C° 0 mm 4 mps 723 mmHg 18%
    21:00 +22°C° 0 mm 4 mps 723 mmHg 22%
    22:00 +21°C° 0 mm 5 mps 723 mmHg 26%
    23:00 +20°C° 0 mm 5 mps 723 mmHg 29%

    Day after tomorrow, 20 February, Thursday

    Time Temperature Precipitation Wind Pressure Humidity
    00:00 +19°C° 0 mm 5 mps 723 mmHg 32%
    01:00 +19°C° 0 mm 5 mps 723 mmHg 34%
    02:00 +17°C° 0 mm 5 mps 723 mmHg 37%
    03:00 +16°C° 0 mm 5 mps 723 mmHg 40%
    04:00 +16°C° 0 mm 5 mps 723 mmHg 43%
    05:00 +15°C° 0 mm 5 mps 722 mmHg 45%
    06:00 +16°C° 0 mm 5 mps 723 mmHg 45%
    07:00 +16°C° 0 mm 5 mps 724 mmHg 44%
    08:00 +17°C° 0 mm 5 mps 724 mmHg 43%
    09:00 +20°C° 0 mm 5 mps 724 mmHg 36%
    10:00 +23°C° 0 mm 4 mps 724 mmHg 30%
    11:00 +27°C° 0 mm 3 mps 724 mmHg 23%
    12:00 +29°C° 0 mm 3 mps 723 mmHg 20%
    13:00 +30°C° 0 mm 4 mps 723 mmHg 18%
    14:00 +33°C° 0 mm 4 mps 722 mmHg 15%
    15:00 +31°C° 0 mm 3 mps 722 mmHg 16%
    16:00 +30°C° 0 mm 3 mps 722 mmHg 18%
    17:00 +29°C° 0 mm 2 mps 721 mmHg 20%
    18:00 +27°C° 0 mm 2 mps 722 mmHg 22%
    19:00 +24°C° 0 mm 2 mps 722 mmHg 24%
    20:00 +21°C° 0 mm 2 mps 722 mmHg 27%
    21:00 +20°C° 0 mm 3 mps 722 mmHg 28%
    22:00 +20°C° 0 mm 3 mps 723 mmHg 28%
    23:00 +19°C° 0 mm 4 mps 723 mmHg 29%

    21 February, Friday

    Time Temperature Precipitation Wind Pressure Humidity
    00:00 +18°C° 0 mm 4 mps 723 mmHg 30%
    01:00 +18°C° 0 mm 4 mps 723 mmHg 31%
    02:00 +17°C° 0 mm 4 mps 722 mmHg 32%
    03:00 +15°C° 0 mm 4 mps 722 mmHg 36%
    04:00 +16°C° 0 mm 3 mps 722 mmHg 39%
    05:00 +14°C° 0 mm 3 mps 722 mmHg 43%
    06:00 +15°C° 0 mm 4 mps 723 mmHg 43%
    07:00 +17°C° 0 mm 4 mps 724 mmHg 43%
    08:00 +16°C° 0 mm 5 mps 725 mmHg 43%
    09:00 +20°C° 0 mm 5 mps 725 mmHg 36%
    10:00 +22°C° 0 mm 4 mps 726 mmHg 28%
    11:00 +26°C° 0 mm 4 mps 726 mmHg 21%
    18:00 +24°C° 0 mm 3 mps 725 mmHg 28%
    19:00 +20°C° 0 mm 3 mps 726 mmHg 32%
    20:00 +18°C° 0 mm 2 mps 726 mmHg 37%
    21:00 +17°C° 0 mm 2 mps 726 mmHg 38%
    22:00 +17°C° 0 mm 2 mps 726 mmHg 39%
    23:00 +16°C° 0 mm 2 mps 726 mmHg 40%

    22 February, Saturday

    Time Temperature Precipitation Wind Pressure Humidity
    00:00 +16°C° 0 mm 2 mps 726 mmHg 41%
    01:00 +15°C° 0 mm 2 mps 726 mmHg 42%
    02:00 +15°C° 0 mm 2 mps 726 mmHg 43%
    03:00 +14°C° 0 mm 2 mps 726 mmHg 43%
    04:00 +14°C° 0 mm 2 mps 726 mmHg 44%
    05:00 +14°C° 0 mm 2 mps 726 mmHg 44%
    06:00 +16°C° 0 mm 2 mps 726 mmHg 41%
    07:00 +18°C° 0 mm 1 mps 727 mmHg 38%
    08:00 +20°C° 0 mm 1 mps 728 mmHg 36%
    09:00 +23°C° 0 mm 1 mps 728 mmHg 30%
    10:00 +25°C° 0 mm 1 mps 728 mmHg 25%
    11:00 +25°C° 0 mm 0 mps 728 mmHg 20%
    12:00 +26°C° 0 mm 0 mps 728 mmHg 19%
    13:00 +29°C° 0 mm 1 mps 727 mmHg 17%
    14:00 +30°C° 0 mm 1 mps 726 mmHg 15%
    15:00 +29°C° 0 mm 1 mps 726 mmHg 17%
    16:00 +29°C° 0 mm 1 mps 726 mmHg 19%
    17:00 +28°C° 0 mm 2 mps 726 mmHg 21%
    18:00 +26°C° 0 mm 2 mps 726 mmHg 24%
    19:00 +23°C° 0 mm 2 mps 726 mmHg 28%
    20:00 +20°C° 0 mm 3 mps 726 mmHg 32%
    21:00 +19°C° 0 mm 3 mps 726 mmHg 34%
    22:00 +19°C° 0 mm 3 mps 726 mmHg 36%
    23:00 +18°C° 0 mm 3 mps 726 mmHg 39%

    23 February, Sunday

    Time Temperature Precipitation Wind Pressure Humidity
    00:00 +18°C° 0 mm 3 mps 726 mmHg 41%
    01:00 +18°C° 0 mm 3 mps 726 mmHg 44%
    02:00 +17°C° 0 mm 3 mps 726 mmHg 47%
    03:00 +17°C° 0 mm 3 mps 725 mmHg 51%
    04:00 +17°C° 0 mm 3 mps 725 mmHg 54%
    05:00 +16°C° 0 mm 2 mps 725 mmHg 58%
    06:00 +18°C° 0 mm 2 mps 726 mmHg 54%
    07:00 +19°C° 0 mm 2 mps 727 mmHg 51%
    08:00 +20°C° 0 mm 2 mps 727 mmHg 47%
    09:00 +23°C° 0 mm 2 mps 727 mmHg 41%
    10:00 +25°C° 0 mm 1 mps 728 mmHg 36%
    11:00 +27°C° 0 mm 1 mps 728 mmHg 31%
    12:00 +28°C° 0 mm 1 mps 727 mmHg 28%
    13:00 +29°C° 0 mm 1 mps 726 mmHg 26%
    14:00 +28°C° 0 mm 0 mps 725 mmHg 23%
    15:00 +30°C° 0 mm 1 mps 725 mmHg 25%
    16:00 +29°C° 0 mm 2 mps 725 mmHg 26%
    17:00 +29°C° 0 mm 2 mps 725 mmHg 27%
    18:00 +27°C° 0 mm 3 mps 725 mmHg 33%
    19:00 +25°C° 0 mm 4 mps 725 mmHg 40%
    20:00 +22°C° 0 mm 5 mps 725 mmHg 47%
    21:00 +21°C° 0 mm 4 mps 725 mmHg 48%
    22:00 +20°C° 0 mm 4 mps 725 mmHg 50%
    23:00 +20°C° 0 mm 3 mps 725 mmHg 51%
    Show more